CZ-3A DEB, 35550

Orbit data source: Space-Track

CZ-3A DEB, 35550 is space debris in HEO originally from a launch on Fri, 02 Feb 2007 UTC launched from the Xichang Space Center, China (XSC). Debris objects in space refer to the collection of defunct objects orbiting the Earth. Examples of debris include non-operational satellites, rocket bodies, and fragments generated from explosions, collisions, or faulty payload assembly.

Loading next visibility...
Identifier
35550, 2007-003J
Orbit
HEO
Country
Flag of CNCN / PRC
Related business
Manufacturer
Unknown
Mission
Spacecraft
Bus & Motor
Unknown
Mass
Unknown
Launch date (UTC)
2007-02-02 (19 years ago)
Launch vehicle
Unknown
Launch site
Xichang Space Center, China (XSC)
Object type
Payload
Rocket body
Debris
Shape & HBR
Unknown shape, 0.3 m
Radar Cross Section
Medium (>0.1 m² and <1 m²)

Expand to show TLE details & history
Last TLE update: 3 weeks ago

TLE from 3 weeks ago
0 CZ-3A DEB
1 35550U 07003J   26154.16375839 -.00000014  00000-0  16685-2 0  9992
2 35550  24.6214  19.5152 7370081 283.0383  10.3424  2.09202060129978
Epoch: 2026-06-03T03:55Z
TLE epoch observation values (Epoch: 2026-06-03T03:55:48.724Z)
Latitude
0.00067°
Longitude
68.96181°
Altitude
3,760.865 km
Speed
7.949 km/s
True Right ascension
01h 18m 09s
True Declination
0° 00' 02"
Sunlit
Object was in daylight at epoch
Visualization orbit readout
Latitude
Unknown
Longitude
Unknown
Altitude
Unknown
Speed
Unknown
Apparent Right ascension
Unknown
Apparent Declination
Unknown
Sunlit
N/A
Visualization observer readout
Local Sidereal Time
07:09:44
Azimuth
Unknown
Elevation
Unknown
Doppler factor
Unknown
Orbital elements
Apogee altitude
38,485.591 km
Perigee altitude
414.461 km
Semi-major axis
25,828.163 km
Eccentricity
0.73701
Inclination
24.6214°
RAAN
19.5152°
Arg. of periapsis
283.0383°
True anomaly
76.11665°
Mean anomaly
10.3424°
Eccentric anomaly
33.88598°
Mean motion
0.52288 °/min
Orbital period
688.49 mins
BSTAR
0.0016685
Loading maneuver chart data...
Computing Atmospheric mass density...
Loading historical data...
Loading historical data...
Loading historical data...
Loading historical data...
Loading historical data...
Loading historical data...
Loading historical data...

Documentation

Showing up to 5 results
|